This is the latest recevied weather packets stored in our database for station/object HP1MRA-15. If no packets are shown the sender has not sent any weather packets the latest 10 day(s).
| Time | Temp. | Humidity | Pressure | Rain* | Wind** | Luminosity | Snow |
|---|---|---|---|---|---|---|---|
| 1788450255 | 37.22° C | 69% | 1003.7 hPa | 0 mm | - | - | - |
| 1788449956 | 36.67° C | 69% | 1003.7 hPa | 0 mm | - | - | - |
| 1788449954 | 36.67° C | 69% | 1003.7 hPa | 0 mm | - | - | - |
| 1788449655 | 36.67° C | 69% | 1003.7 hPa | 0 mm | - | - | - |
| 1788449356 | 36.67° C | 69% | 1003.5 hPa | 0 mm | - | - | - |
| 1788449054 | 36.67° C | 68% | 1003.6 hPa | 0 mm | - | - | - |
| 1788448456 | 37.22° C | 71% | 1003.6 hPa | 0 mm | - | - | - |
| 1788448155 | 36.67° C | 72% | 1003.7 hPa | 0 mm | - | - | - |
| 1788447855 | 36.11° C | 72% | 1003.8 hPa | 0 mm | - | - | - |
| 1788447555 | 35.56° C | 72% | 1003.8 hPa | 0 mm | - | - | - |
| 1788447254 | 35° C | 73% | 1003.7 hPa | 0 mm | - | - | - |
| 1788446956 | 34.44° C | 71% | 1003.7 hPa | 0 mm | - | - | - |
| 1788446655 | 33.89° C | 72% | 1003.8 hPa | 0 mm | - | - | - |
| 1788446355 | 33.89° C | 74% | 1003.9 hPa | 0 mm | - | - | - |
| 1788446353 | 33.89° C | 74% | 1003.9 hPa | 0 mm | - | - | - |
| 1788446055 | 33.89° C | 72% | 1003.9 hPa | 0 mm | - | - | - |
| 1788445755 | 33.33° C | 72% | 1003.9 hPa | 0 mm | - | - | - |
| 1788445455 | 32.78° C | 73% | 1003.8 hPa | 0 mm | - | - | - |
| 1788445454 | 32.78° C | 73% | 1003.7 hPa | 0 mm | - | - | - |
| 1788445155 | 32.78° C | 75% | 1003.7 hPa | 0 mm | - | - | - |
| 1788444854 | 32.78° C | 73% | 1003.6 hPa | 0 mm | - | - | - |
| 1788444553 | 33.33° C | 75% | 1003.6 hPa | 0 mm | - | - | - |
| 1788444255 | 33.33° C | 75% | 1003.6 hPa | 0 mm | - | - | - |
| 1788443955 | 32.78° C | 76% | 1003.7 hPa | 0 mm | - | - | - |
| 1788443654 | 32.78° C | 76% | 1003.8 hPa | 0 mm | - | - | - |
* Rain latest hour (hover to see other rain measurements)
** Current wind speed in m/s (hover to see current wind gust speed)